| time (UTC) | temp C | wind direction | speed KPH | gust KPH | rain 1hr cm | rain 24hr cm | rain mn cm | humidity % | barometer mb |
| 20260901220040 | 25 | 1 | 0.0 | 3.2 | 0.00 | 0.00 | 0.00 | 60 | 1010.4 |
| 20260901214529 | 25 | 1 | 0.0 | 4.8 | 0.00 | 0.00 | 0.00 | 57 | 1010.1 |
| 20260901213108 | 25 | 28 | 1.6 | 6.4 | 0.00 | 0.00 | 0.00 | 57 | 1010.5 |
| 20260901211548 | 25 | 2 | 1.6 | 6.4 | 0.00 | 0.00 | 0.00 | 58 | 1010.5 |
| 20260901210035 | 25 | 72 | 1.6 | 4.8 | 0.00 | 0.00 | 0.00 | 59 | 1010.2 |
| 20260901204606 | 25 | 72 | 0.0 | 3.2 | 0.00 | 0.00 | 0.00 | 55 | 1010.4 |
| 20260901203021 | 25 | 72 | 0.0 | 4.8 | 0.00 | 0.00 | 0.00 | 60 | 1010.5 |
| 20260901201534 | 25 | 96 | 1.6 | 4.8 | 0.00 | 0.00 | 0.00 | 60 | 1010.4 |
| 20260901200107 | 25 | 68 | 4.8 | 8.0 | 0.00 | 0.00 | 0.00 | 60 | 1009.8 |
| 20260901194607 | 24 | 75 | 3.2 | 8.0 | 0.00 | 0.00 | 0.00 | 60 | 1009.7 |
| 20260901193036 | 24 | 127 | 1.6 | 6.4 | 0.00 | 0.00 | 0.00 | 60 | 1010.3 |
| 20260901191545 | 25 | 55 | 4.8 | 9.7 | 0.00 | 0.00 | 0.00 | 56 | 1010.3 |
| 20260901190029 | 26 | 72 | 3.2 | 9.7 | 0.00 | 0.00 | 0.00 | 55 | 1010.4 |
| 20260901184523 | 25 | 51 | 4.8 | 11.3 | 0.00 | 0.00 | 0.00 | 56 | 1010.2 |
| 20260901183043 | 25 | 122 | 3.2 | 11.3 | 0.00 | 0.00 | 0.00 | 59 | 1010.1 |
| 20260901181511 | 25 | 13 | 3.2 | 9.7 | 0.00 | 0.00 | 0.00 | 53 | 1010.3 |
| 20260901180039 | 25 | 44 | 3.2 | 8.0 | 0.00 | 0.00 | 0.00 | 56 | 1010.1 |
| 20260901174532 | 25 | 39 | 3.2 | 8.0 | 0.00 | 0.00 | 0.00 | 53 | 1010.4 |
| 20260901173106 | 26 | 19 | 3.2 | 9.7 | 0.00 | 0.00 | 0.00 | 51 | 1010.4 |
| 20260901171554 | 26 | 60 | 3.2 | 9.7 | 0.00 | 0.00 | 0.00 | 50 | 1010.6 |
| 20260901170122 | 25 | 113 | 3.2 | 6.4 | 0.00 | 0.00 | 0.00 | 52 | 1011.0 |
| 20260901164609 | 24 | 111 | 1.6 | 6.4 | 0.00 | 0.00 | 0.00 | 52 | 1011.2 |
| 20260901163008 | 25 | 123 | 0.0 | 4.8 | 0.00 | 0.00 | 0.00 | 54 | 1011.2 |
| 20260901161553 | 22 | 294 | 0.0 | 1.6 | 0.00 | 0.00 | 0.00 | 56 | 1011.3 |
| 20260901160019 | 22 | 294 | 1.6 | 6.4 | 0.00 | 0.00 | 0.00 | 56 | 1011.1 |
| 20260901154516 | 22 | 311 | 0.0 | 4.8 | 0.00 | 0.00 | 0.00 | 60 | 1011.3 |
| 20260901153039 | 22 | 338 | 3.2 | 8.0 | 0.00 | 0.00 | 0.00 | 60 | 1011.2 |
| 20260901151533 | 21 | 293 | 3.2 | 9.7 | 0.00 | 0.00 | 0.00 | 61 | 1011.2 |
| 20260901150012 | 21 | 1 | 3.2 | 8.0 | 0.00 | 0.00 | 0.00 | 61 | 1011.1 |
| 20260901144534 | 21 | 341 | 1.6 | 6.4 | 0.00 | 0.00 | 0.00 | 63 | 1011.5 |
| 20260901143022 | 21 | 358 | 0.0 | 4.8 | 0.00 | 0.00 | 0.00 | 65 | 1011.5 |
| 20260901141609 | 20 | 1 | 0.0 | 4.8 | 0.00 | 0.00 | 0.00 | 67 | 1011.5 |
| 20260901140014 | 20 | 1 | 0.0 | 3.2 | 0.00 | 0.00 | 0.00 | 67 | 1011.5 |
| 20260901134522 | 20 | 1 | 0.0 | 3.2 | 0.00 | 0.00 | 0.00 | 65 | 1011.5 |
| 20260901133042 | 21 | 296 | 0.0 | 4.8 | 0.00 | 0.00 | 0.00 | 66 | 1011.4 |
| 20260901131553 | 20 | 323 | 0.0 | 3.2 | 0.00 | 0.00 | 0.00 | 64 | 1011.2 |
| 20260901130011 | 20 | 290 | 0.0 | 3.2 | 0.00 | 0.00 | 0.00 | 66 | 1011.3 |
| 20260901124553 | 17 | 212 | 0.0 | 4.8 | 0.00 | 0.00 | 0.00 | 73 | 1011.1 |
| 20260901123051 | 16 | 302 | 0.0 | 1.6 | 0.00 | 0.00 | 0.00 | 76 | 1010.7 |
| 20260901121517 | 16 | 261 | 0.0 | 3.2 | 0.00 | 0.00 | 0.00 | 72 | 1010.5 |
| 20260901120005 | 16 | 219 | 1.6 | 8.0 | 0.00 | 0.00 | 0.00 | 76 | 1010.5 |
| 20260901114557 | 16 | 211 | 3.2 | 8.0 | 0.00 | 0.00 | 0.00 | 75 | 1010.3 |
| 20260901113046 | 17 | 245 | 1.6 | 4.8 | 0.00 | 0.00 | 0.00 | 72 | 1010.1 |
| 20260901111616 | 17 | 253 | 3.2 | 9.7 | 0.00 | 0.00 | 0.00 | 74 | 1010.1 |
| 20260901110046 | 17 | 255 | 3.2 | 9.7 | 0.00 | 0.00 | 0.00 | 72 | 1010.0 |
| 20260901104603 | 17 | 261 | 3.2 | 12.9 | 0.00 | 0.00 | 0.00 | 74 | 1010.0 |
| 20260901103008 | 17 | 252 | 4.8 | 9.7 | 0.00 | 0.00 | 0.00 | 74 | 1010.1 |
| 20260901101540 | -17 | 0.0 | 0.0 | 0.00 | 0.00 | 0.00 | 1010.0 | ||
| 20260901100004 | -17 | 0.0 | 0.0 | 0.00 | 0.00 | 0.00 | 1009.6 | ||
| 20260901094537 | -17 | 0.0 | 0.0 | 0.00 | 0.00 | 0.00 | 1009.6 | ||
| 20260901093038 | -17 | 0.0 | 0.0 | 0.00 | 0.00 | 0.00 | 1009.7 | ||
| 20260901091608 | 15 | 231 | 4.8 | 8.0 | 0.00 | 0.00 | 0.00 | 87 | 1009.8 |
| 20260901090030 | 16 | 240 | 4.8 | 8.0 | 0.00 | 0.00 | 0.00 | 87 | 1009.7 |
| 20260901084504 | 16 | 206 | 3.2 | 8.0 | 0.00 | 0.00 | 0.00 | 88 | 1009.4 |
| 20260901083102 | 15 | 233 | 1.6 | 4.8 | 0.00 | 0.00 | 0.00 | 88 | 1009.3 |
| 20260901081613 | 15 | 210 | 3.2 | 8.0 | 0.00 | 0.00 | 0.00 | 90 | 1009.4 |
| 20260901080100 | 15 | 215 | 3.2 | 4.8 | 0.00 | 0.00 | 0.00 | 89 | 1009.4 |
| 20260901074603 | 15 | 195 | 1.6 | 4.8 | 0.00 | 0.00 | 0.00 | 88 | 1009.3 |
| 20260901073018 | 16 | 172 | 1.6 | 8.0 | 0.00 | 0.00 | 0.00 | 88 | 1009.4 |
| 20260901071514 | 16 | 199 | 0.0 | 4.8 | 0.00 | 0.00 | 0.00 | 88 | 1009.3 |
| 20260901070026 | 16 | 212 | 1.6 | 6.4 | 0.00 | 0.00 | 0.00 | 87 | 1009.3 |
| 20260901064523 | 16 | 233 | 0.0 | 11.3 | 0.00 | 0.00 | 0.00 | 86 | 1009.4 |
| 20260901063026 | 16 | 204 | 1.6 | 6.4 | 0.00 | 0.00 | 0.00 | 86 | 1009.4 |
| 20260901061611 | 16 | 225 | 0.0 | 4.8 | 0.00 | 0.00 | 0.00 | 85 | 1009.6 |
| 20260901060005 | 16 | 243 | 1.6 | 4.8 | 0.00 | 0.00 | 0.00 | 84 | 1009.8 |
| 20260901054549 | 17 | 220 | 1.6 | 6.4 | 0.00 | 0.00 | 0.00 | 83 | 1009.7 |
| 20260901053121 | 17 | 236 | 3.2 | 8.0 | 0.00 | 0.00 | 0.00 | 83 | 1009.8 |
| 20260901051550 | 17 | 275 | 3.2 | 8.0 | 0.00 | 0.00 | 0.00 | 83 | 1009.9 |
| 20260901050006 | 17 | 212 | 1.6 | 4.8 | 0.00 | 0.00 | 0.00 | 83 | 1009.7 |
| 20260901044525 | 17 | 217 | 0.0 | 4.8 | 0.00 | 0.00 | 0.00 | 83 | 1009.8 |
| 20260901043022 | 18 | 39 | 0.0 | 8.0 | 0.00 | 0.00 | 0.00 | 79 | 1009.8 |
| 20260901041525 | 18 | 250 | 1.6 | 4.8 | 0.00 | 0.00 | 0.00 | 79 | 1009.5 |
| 20260901040028 | 18 | 250 | 1.6 | 6.4 | 0.00 | 0.00 | 0.00 | 76 | 1009.2 |
| 20260901034557 | 18 | 236 | 1.6 | 6.4 | 0.00 | 0.00 | 0.00 | 77 | 1009.0 |
| 20260901033055 | 20 | 240 | 4.8 | 11.3 | 0.00 | 0.00 | 0.00 | 74 | 1008.8 |
| 20260901031527 | 20 | 276 | 3.2 | 9.7 | 0.00 | 0.00 | 0.00 | 76 | 1008.8 |
| 20260901030013 | 18 | 233 | 1.6 | 6.4 | 0.00 | 0.00 | 0.00 | 81 | 1008.9 |
| 20260901024502 | 18 | 248 | 1.6 | 4.8 | 0.00 | 0.00 | 0.00 | 83 | 1008.9 |
| 20260901023029 | 18 | 238 | 0.0 | 4.8 | 0.00 | 0.00 | 0.00 | 82 | 1008.8 |
| 20260901021503 | 17 | 231 | 1.6 | 4.8 | 0.00 | 0.00 | 0.00 | 82 | 1008.6 |
| 20260901020006 | 18 | 236 | 0.0 | 3.2 | 0.00 | 0.00 | 0.00 | 82 | 1008.4 |
| 20260901014524 | 18 | 236 | 0.0 | 4.8 | 0.00 | 0.00 | 0.00 | 81 | 1008.2 |
| 20260901013025 | 19 | 259 | 1.6 | 4.8 | 0.00 | 0.00 | 0.00 | 79 | 1007.9 |
| 20260901011558 | 19 | 231 | 0.0 | 6.4 | 0.00 | 0.00 | 0.00 | 78 | 1007.9 |
| 20260901010013 | 20 | 233 | 1.6 | 4.8 | 0.00 | 0.00 | 0.00 | 74 | 1007.9 |
| 20260901004538 | 21 | 231 | 0.0 | 4.8 | 0.00 | 0.00 | 0.00 | 70 | 1007.8 |
| 20260901003044 | 22 | 201 | 0.0 | 4.8 | 0.00 | 0.00 | 0.00 | 67 | 1007.8 |
| 20260901001548 | 23 | 216 | 1.6 | 6.4 | 0.00 | 0.00 | 0.00 | 61 | 1007.8 |
| 20260901000037 | 25 | 186 | 0.0 | 4.8 | 0.00 | 0.00 | 0.00 | 56 | 1007.8 |
| 20260831234547 | 25 | 165 | 1.6 | 4.8 | 0.00 | 0.00 | 0.00 | 54 | 1007.7 |
| 20260831233105 | -17 | 0.0 | 0.0 | 0.00 | 0.00 | 0.00 | 1008.1 | ||
| 20260831231533 | -17 | 0.0 | 0.0 | 0.00 | 0.00 | 0.00 | 1008.1 | ||
| 20260831230104 | -17 | 0.0 | 0.0 | 0.00 | 0.00 | 0.00 | 1008.1 | ||
| 20260831224558 | -17 | 0.0 | 0.0 | 0.00 | 0.00 | 0.00 | 1008.0 | ||
| 20260831223025 | -17 | 0.0 | 0.0 | 0.00 | 0.00 | 0.00 | 1008.0 | ||
| 20260831221519 | 29 | 216 | 1.6 | 11.3 | 0.00 | 0.00 | 0.00 | 42 | 1008.0 |